When you browse on this site, cookies collect data to enhance your experience and personalize the content and advertising you see.
Visit our Privacy Policy to learn more. By continuing to use the site, you agree to this use of cookies and data.

Meteo pe oră la Dori

Astăzi, 22 Septembrie, Marţi

Timp Temperatura Precipitaţii Vânt Presiune Umiditate
00:00 +31°C° 0 mm 3 m/s 734 mmHg 54%
01:00 +32°C° 0 mm 4 m/s 734 mmHg 57%
02:00 +32°C° 0 mm 4 m/s 734 mmHg 59%
03:00 +30°C° 0 mm 5 m/s 733 mmHg 61%
04:00 +30°C° 0 mm 5 m/s 734 mmHg 64%
05:00 +29°C° 0 mm 5 m/s 734 mmHg 67%
06:00 +29°C° 0 mm 5 m/s 734 mmHg 70%
07:00 +30°C° 0 mm 5 m/s 735 mmHg 67%
08:00 +32°C° 0 mm 5 m/s 735 mmHg 63%
09:00 +33°C° 0 mm 5 m/s 736 mmHg 60%
10:00 +34°C° 0 mm 4 m/s 735 mmHg 53%
11:00 +36°C° 0 mm 4 m/s 735 mmHg 47%
12:00 +37°C° 0 mm 3 m/s 735 mmHg 40%
13:00 +37°C° 0.1 mm 3 m/s 734 mmHg 39%
14:00 +38°C° 0.1 mm 4 m/s 733 mmHg 38%
15:00 +38°C° 0.1 mm 4 m/s 733 mmHg 36%
16:00 +36°C° 1 mm 4 m/s 733 mmHg 42%
17:00 +35°C° 1 mm 3 m/s 733 mmHg 48%
18:00 +33°C° 1 mm 3 m/s 733 mmHg 53%
19:00 +32°C° 0 mm 4 m/s 733 mmHg 57%
20:00 +32°C° 0 mm 5 m/s 734 mmHg 61%
21:00 +30°C° 0 mm 6 m/s 735 mmHg 64%
22:00 +30°C° 0 mm 5 m/s 735 mmHg 64%
23:00 +30°C° 0 mm 3 m/s 735 mmHg 64%

Mâine, 23 Septembrie, Miercuri

Timp Temperatura Precipitaţii Vânt Presiune Umiditate
00:00 +30°C° 0 mm 2 m/s 734 mmHg 63%
01:00 +30°C° 0 mm 2 m/s 734 mmHg 63%
02:00 +29°C° 0 mm 2 m/s 734 mmHg 64%
03:00 +29°C° 0 mm 1 m/s 733 mmHg 64%
04:00 +29°C° 0 mm 2 m/s 734 mmHg 66%
05:00 +28°C° 0 mm 2 m/s 734 mmHg 68%
06:00 +28°C° 0 mm 2 m/s 734 mmHg 71%
07:00 +30°C° 0 mm 2 m/s 735 mmHg 64%
08:00 +31°C° 0 mm 2 m/s 735 mmHg 58%
09:00 +32°C° 0 mm 2 m/s 735 mmHg 52%
10:00 +35°C° 0 mm 2 m/s 735 mmHg 47%
11:00 +36°C° 0 mm 3 m/s 735 mmHg 41%
12:00 +38°C° 0 mm 3 m/s 735 mmHg 35%
13:00 +38°C° 0 mm 3 m/s 734 mmHg 34%
14:00 +39°C° 0 mm 3 m/s 734 mmHg 32%
15:00 +39°C° 0 mm 3 m/s 733 mmHg 30%
16:00 +39°C° 0 mm 3 m/s 733 mmHg 31%
17:00 +39°C° 0 mm 3 m/s 733 mmHg 32%
18:00 +38°C° 0 mm 3 m/s 733 mmHg 33%
19:00 +37°C° 0 mm 3 m/s 733 mmHg 37%
20:00 +36°C° 0 mm 4 m/s 734 mmHg 42%
21:00 +35°C° 0 mm 4 m/s 734 mmHg 46%
22:00 +34°C° 0 mm 4 m/s 734 mmHg 49%
23:00 +34°C° 0 mm 5 m/s 734 mmHg 52%

Poimâine, 24 Septembrie, Joi

Timp Temperatura Precipitaţii Vânt Presiune Umiditate
00:00 +33°C° 0 mm 5 m/s 734 mmHg 55%
01:00 +33°C° 0 mm 4 m/s 734 mmHg 56%
02:00 +32°C° 0 mm 4 m/s 734 mmHg 57%
03:00 +32°C° 0 mm 4 m/s 733 mmHg 58%
04:00 +30°C° 0 mm 4 m/s 734 mmHg 60%
05:00 +30°C° 0 mm 4 m/s 734 mmHg 62%
06:00 +30°C° 0 mm 4 m/s 734 mmHg 65%
07:00 +32°C° 0 mm 4 m/s 735 mmHg 61%
08:00 +33°C° 0 mm 5 m/s 735 mmHg 58%
09:00 +34°C° 0 mm 5 m/s 736 mmHg 54%
10:00 +35°C° 0 mm 5 m/s 735 mmHg 49%
11:00 +37°C° 0 mm 4 m/s 735 mmHg 44%
12:00 +38°C° 0 mm 4 m/s 734 mmHg 39%
13:00 +39°C° 0 mm 3 m/s 734 mmHg 36%
14:00 +40°C° 0 mm 3 m/s 733 mmHg 32%
15:00 +41°C° 0 mm 2 m/s 732 mmHg 28%
16:00 +40°C° 0 mm 2 m/s 732 mmHg 29%
17:00 +40°C° 0 mm 1 m/s 732 mmHg 29%
18:00 +40°C° 0 mm 1 m/s 732 mmHg 29%
19:00 +39°C° 0 mm 2 m/s 732 mmHg 30%
20:00 +38°C° 0 mm 3 m/s 733 mmHg 30%
21:00 +38°C° 0 mm 4 m/s 733 mmHg 30%
22:00 +37°C° 0 mm 4 m/s 733 mmHg 37%
23:00 +35°C° 0 mm 5 m/s 733 mmHg 44%

25 Septembrie, Vineri

Timp Temperatura Precipitaţii Vânt Presiune Umiditate
00:00 +34°C° 0 mm 6 m/s 733 mmHg 51%
01:00 +33°C° 0 mm 6 m/s 733 mmHg 54%
02:00 +33°C° 0 mm 6 m/s 733 mmHg 56%
03:00 +32°C° 0 mm 6 m/s 733 mmHg 58%
04:00 +32°C° 0 mm 6 m/s 733 mmHg 60%
05:00 +32°C° 0 mm 6 m/s 733 mmHg 62%
06:00 +30°C° 0 mm 5 m/s 734 mmHg 63%
07:00 +32°C° 0 mm 6 m/s 734 mmHg 60%
08:00 +33°C° 0 mm 6 m/s 735 mmHg 57%
09:00 +34°C° 0 mm 7 m/s 735 mmHg 53%
10:00 +36°C° 0 mm 7 m/s 735 mmHg 49%
11:00 +38°C° 0 mm 7 m/s 734 mmHg 45%
12:00 +40°C° 0 mm 7 m/s 734 mmHg 40%
13:00 +40°C° 0 mm 6 m/s 733 mmHg 37%
14:00 +41°C° 0 mm 6 m/s 733 mmHg 34%
15:00 +42°C° 0 mm 5 m/s 732 mmHg 30%
16:00 +41°C° 0 mm 5 m/s 732 mmHg 32%
17:00 +40°C° 0 mm 4 m/s 732 mmHg 33%
18:00 +40°C° 0 mm 4 m/s 732 mmHg 35%
19:00 +39°C° 0 mm 5 m/s 732 mmHg 40%
20:00 +37°C° 0 mm 5 m/s 732 mmHg 44%
21:00 +36°C° 0 mm 6 m/s 733 mmHg 49%
22:00 +35°C° 0 mm 6 m/s 733 mmHg 53%
23:00 +34°C° 0 mm 6 m/s 733 mmHg 57%

26 Septembrie, Sâmbătă

Timp Temperatura Precipitaţii Vânt Presiune Umiditate
00:00 +33°C° 0 mm 6 m/s 733 mmHg 62%
01:00 +32°C° 0 mm 6 m/s 732 mmHg 63%
02:00 +32°C° 0 mm 6 m/s 732 mmHg 64%
03:00 +30°C° 0 mm 6 m/s 732 mmHg 65%
04:00 +30°C° 0 mm 6 m/s 732 mmHg 65%
05:00 +30°C° 0 mm 5 m/s 732 mmHg 66%
06:00 +30°C° 0 mm 5 m/s 732 mmHg 66%
07:00 +30°C° 0 mm 6 m/s 733 mmHg 63%
08:00 +32°C° 0 mm 7 m/s 734 mmHg 61%
09:00 +33°C° 0 mm 8 m/s 734 mmHg 58%
10:00 +34°C° 0 mm 9 m/s 734 mmHg 54%
11:00 +35°C° 0 mm 9 m/s 734 mmHg 51%
12:00 +37°C° 0 mm 9 m/s 733 mmHg 48%
13:00 +37°C° 0 mm 8 m/s 733 mmHg 45%
14:00 +38°C° 0 mm 8 m/s 732 mmHg 43%
15:00 +38°C° 0 mm 7 m/s 732 mmHg 41%
16:00 +38°C° 0 mm 6 m/s 732 mmHg 42%
17:00 +36°C° 0 mm 5 m/s 731 mmHg 43%
18:00 +36°C° 0 mm 4 m/s 731 mmHg 44%
19:00 +35°C° 0 mm 4 m/s 732 mmHg 46%
20:00 +35°C° 0 mm 4 m/s 732 mmHg 48%
21:00 +34°C° 0 mm 4 m/s 733 mmHg 50%
22:00 +33°C° 0 mm 5 m/s 733 mmHg 52%
23:00 +33°C° 0 mm 5 m/s 732 mmHg 55%

27 Septembrie, Duminică

Timp Temperatura Precipitaţii Vânt Presiune Umiditate
00:00 +32°C° 0 mm 6 m/s 732 mmHg 58%
01:00 +30°C° 0 mm 6 m/s 732 mmHg 60%
02:00 +30°C° 0 mm 6 m/s 732 mmHg 62%
03:00 +29°C° 0 mm 6 m/s 731 mmHg 64%
04:00 +29°C° 0 mm 6 m/s 732 mmHg 65%
05:00 +29°C° 0 mm 6 m/s 732 mmHg 66%
06:00 +28°C° 0 mm 5 m/s 732 mmHg 67%
07:00 +29°C° 0 mm 6 m/s 733 mmHg 64%
08:00 +30°C° 0 mm 6 m/s 733 mmHg 61%
09:00 +32°C° 0 mm 7 m/s 734 mmHg 58%
10:00 +34°C° 0 mm 6 m/s 734 mmHg 53%
11:00 +35°C° 0 mm 5 m/s 733 mmHg 48%
12:00 +36°C° 0 mm 4 m/s 733 mmHg 42%
13:00 +37°C° 0 mm 4 m/s 732 mmHg 40%
14:00 +37°C° 0 mm 4 m/s 732 mmHg 37%
15:00 +38°C° 0 mm 4 m/s 731 mmHg 35%
16:00 +38°C° 0 mm 3 m/s 731 mmHg 36%
17:00 +37°C° 0 mm 3 m/s 731 mmHg 36%
18:00 +37°C° 0 mm 2 m/s 731 mmHg 37%
19:00 +36°C° 0.1 mm 3 m/s 732 mmHg 39%
20:00 +35°C° 0.1 mm 4 m/s 732 mmHg 41%
21:00 +35°C° 0.1 mm 4 m/s 733 mmHg 43%
22:00 +34°C° 0 mm 4 m/s 733 mmHg 45%
23:00 +33°C° 0 mm 4 m/s 733 mmHg 48%
Arată mai mult